Location: Karcze
(52.0945°N, 22.4786°E)
Time: 00:11:19
(UTC+00:00)

Courier 1B - All Passes

Search period start: 29 July 2021 00:00
Search period end: 08 August 2021 00:00
Orbit: 962 x 1209 km, 28.3° (Epoch: 28 July)

Date Brightness Start Highest point End Pass type
(mag) Time Alt. Az. Time Alt. Az. Time Alt. Az.
01 Aug - 18:52:45 10° S 18:53:19 10° S 18:53:53 10° S daylight
03 Aug - 18:57:58 10° SSW 18:58:51 10° S 18:59:45 10° S visible
04 Aug - 18:03:54 10° SSW 18:05:23 11° S 18:06:51 10° S daylight
05 Aug - 17:10:37 10° S 17:11:54 10° S 17:13:11 10° SSE daylight
06 Aug - 18:10:52 10° S 18:10:54 10° S 18:10:56 10° S daylight
07 Aug - 17:15:57 10° SSW 17:17:26 11° S 17:18:54 10° S daylight
